STARLINK-35902, 66626

Orbit data source: Space-Track

STARLINK-35902, 66626 is a payload satellite owned by SpaceX/Seattle (US) in LEO that was launched on Sun, 23 Nov 2025 UTC via an FALCON 9 launch vehicle from the Air Force Western Test Range (AFWTR). Payload-class satellites include a variety of spacecraft equipped with specific instruments for various scientific and technological missions. These include communications satellites like Starlink; space stations such as the ISS; scientific satellites like the Hubble; Earth observation satellites from companies like Planet Labs, Umbra, and HawkEye 360; GPS; miniature CubeSats for education and research; and military/defense satellites.

Loading next visibility...
Identifier
66626, 2025-271K
Orbit
LEO
Country
Flag of USUS
Related business
Manufacturer
SpaceX/Seattle
Mission
Operational Commercial Communications
Bus & Motor
STARLINK V2MO, Unknown motor
Mass
575 kg wet, ~530 kg dry
Launch date (UTC)
2025-11-23 (5 months ago)
Launch vehicle
FALCON 9
Launch site
Air Force Western Test Range (AFWTR)
Object type
Payload
Rocket body
Debris
Shape & HBR
Box + 2 Pan, 17.7 m
Radar Cross Section
36.964 m²

Expand to show TLE details & history
Last TLE update: 16 hours ago

TLE from 16 hours ago
0 STARLINK-35902
1 66626U 25271K   26127.93514779  .00017827  00000-0  61215-3 0  9999
2 66626  53.1588 225.0136 0001078  95.0216 265.0907 15.30222873 26635
Epoch: 2026-05-07T22:26Z
TLE epoch observation values (Epoch: 2026-05-07T22:26:36.769Z)
Latitude
-0.00007°
Longitude
22.58619°
Altitude
476.11 km
Speed
7.629 km/s
True Right ascension
15h 00m 03s
True Declination
0° 00' 00"
Sunlit
Object was in full shadow at epoch
Visualization orbit readout
Latitude
Unknown
Longitude
Unknown
Altitude
Unknown
Speed
Unknown
Apparent Right ascension
Unknown
Apparent Declination
Unknown
Sunlit
N/A
Visualization observer readout
Local Sidereal Time
22:43:34
Azimuth
Unknown
Elevation
Unknown
Doppler factor
Unknown
Orbital elements
Apogee altitude
476.142 km
Perigee altitude
474.665 km
Semi-major axis
6,853.54 km
Eccentricity
0.00011
Inclination
53.1588°
RAAN
225.0136°
Arg. of periapsis
95.0216°
True anomaly
265.07839°
Mean anomaly
265.0907°
Eccentric anomaly
265.08455°
Mean motion
3.82535 °/min
Orbital period
94.11 mins
BSTAR
0.00061215
Loading maneuver chart data...
Computing Atmospheric mass density...
Loading historical data...
Loading historical data...
Loading historical data...
Loading historical data...
Loading historical data...
Loading historical data...
Loading historical data...

Documentation

Showing up to 5 results
|